Dewpoint
5 6 9 9 8 2 3 4 3 4 5 6 5 7 6 8 8 11 12 12 13 13 11 9 6 0 2 5 6 8 8 9 8 8 8 9 7 3 3 8 8 9 5 6 4 2 -4 -6 -6
6 7 10 8 7 3 3 4 3 3 7 7 7 7 7 8 10 12 13 13 13 13 12 10 4 0 3 4 5 7 8 9 8 8 5 8 3 4 5 7 9 7 6 5 4 -0 -4 -5 -5
5 8 8 7 6 2 3 3 4 7 8 7 7 7 7 7 11 12 13 13 13 12 11 8 3 1 3 5 5 6 7 8 8 8 9 7 4 5 6 9 9 5 5 5 2 -1 -2 -3 -4
6 8 7 8 5 6 6 4 6 7 8 7 7 5 8 10 11 12 11 13 12 11 11 6 3 4 5 5 4 5 7 7 7 9 9 6 4 4 8 8 6 5 5 3 1 -0 -2 -3 -3
7 6 7 8 6 6 7 5 6 7 6 7 6 7 8 10 12 12 11 12 12 11 11 4 4 6 6 4 1 5 7 6 8 9 6 6 6 5 6 7 4 4 3 1 1 -0 -2 -2 -3
5 5 6 7 6 6 6 5 5 6 6 8 7 7 8 10 12 12 12 12 12 11 10 7 7 6 5 2 -6 -1 5 6 8 5 4 4 4 4 4 4 4 3 2 1 0 -1 -2 -3 -4
4 4 5 7 7 6 5 5 5 5 5 6 7 6 10 10 12 12 12 12 11 11 11 11 10 5 3 -6 -14 -6 5 4 3 1 -2 -1 0 1 2 3 3 3 1 -0 -1 -2 -3 -3 -3
5 4 5 6 6 5 5 5 5 5 5 7 8 7 9 10 11 11 12 8 10 10 11 11 10 9 3 -13 -12 -11 -7 -0 -2 -7 -4 0 1 2 2 3 3 1 0 -1 -3 -3 -2 -2 -2
5 4 4 4 5 5 6 5 5 5 6 7 8 8 9 11 9 11 8 7 10 11 12 11 11 9 3 1 -11 -10 -5 -5 -8 -3 -0 3 5 7 8 3 1 0 -2 -3 -3 -2 -1 -1 -1
3 3 2 1 2 3 5 5 5 5 5 6 8 10 10 11 11 10 8 9 10 11 11 10 10 7 5 5 4 5 -1 2 3 3 5 5 6 5 6 -0 -2 -3 -3 -2 -2 -1 1 2 2
3 2 0 0 1 3 4 5 5 5 5 5 7 10 11 11 11 10 9 10 10 11 10 10 9 4 4 5 5 4 4 4 3 4 4 4 3 4 4 2 3 -0 0 3 3 3 2 2 2
3 0 0 0 2 2 4 4 5 5 3 6 6 10 10 11 10 10 9 10 10 10 10 10 7 0 4 3 3 3 1 1 2 3 -0 0 4 3 2 2 2 2 2 2 2 3 0 1 1
2 -0 0 3 3 4 4 5 4 3 4 8 9 10 10 11 10 10 10 10 10 10 10 9 5 -4 -2 3 3 2 1 -1 1 -0 2 3 3 3 2 3 2 2 2 2 2 3 3 3 3
-0 -1 -0 4 5 5 5 4 4 3 6 9 10 10 10 11 11 10 10 10 10 10 9 6 4 -2 -4 3 -3 -0 1 -2 -1 1 1 -0 3 3 3 3 3 2 2 0 2 2 3 3 3
1 2 3 4 4 4 4 5 5 4 7 9 10 10 10 11 11 11 10 10 10 10 8 3 0 -8 -7 4 0 -0 1 -0 1 2 -2 -1 1 -1 3 3 3 2 -4 -2 -1 0 0 1 1
2 2 3 2 4 4 4 2 -0 6 7 8 9 10 11 11 11 11 10 10 10 10 8 -2 -2 -9 -5 4 2 2 1 1 2 2 0 -2 -1 -1 -0 3 3 -2 -3 -0 -0 0 0 -0 0
0 2 2 4 3 3 3 1 -0 6 6 6 9 10 11 11 11 11 11 10 10 10 8 0 -5 -7 -2 0 5 4 2 1 2 2 2 -3 -2 -1 3 3 -1 -3 -4 -1 -0 -0 -0 -1 -1
-1 1 0 2 2 3 2 1 -1 2 6 6 8 9 11 11 11 11 11 11 10 10 8 3 -2 -5 -5 3 5 5 5 3 3 2 2 -3 -0 -1 -1 2 -1 -2 -4 -1 0 0 0 -1 -3
-5 -0 0 -1 0 2 1 1 -1 -0 5 6 7 9 11 11 11 11 11 11 10 10 8 5 0 -6 -4 4 4 5 4 4 4 3 3 -2 -1 -1 -1 1 -0 -2 -3 0 1 0 1 0 -1
-0 -0 -1 -2 -1 1 -0 0 -1 0 1 4 6 8 10 11 10 10 10 11 11 10 9 6 4 -5 -5 2 4 4 3 4 3 3 2 -1 -1 -1 -0 1 1 -1 -4 0 1 0 1 1 0
0 0 -1 -1 -1 -0 1 1 -1 -1 2 6 7 7 9 10 10 10 10 10 11 10 10 8 5 1 -3 1 4 6 5 4 4 4 3 1 -1 -1 0 0 0 -1 -3 1 1 1 1 -0 1
1 -1 -1 -0 1 1 -1 1 -1 -1 1 2 2 7 8 9 10 10 9 10 10 10 10 9 7 5 -1 -3 4 5 4 4 3 4 4 4 -1 -0 1 1 -0 -1 -3 0 1 1 1 1 -1
-0 -3 -0 -1 -1 -1 -0 2 -2 -1 -0 -2 -3 -1 7 8 9 10 9 9 9 10 10 10 9 7 4 -1 3 4 5 4 4 4 4 4 2 1 1 1 0 -1 -2 -0 1 1 1 1 -0
-2 -1 -1 -0 -1 1 0 1 -1 -2 -1 -3 -6 -3 5 8 9 10 10 9 9 9 9 10 9 8 6 3 -0 3 5 4 4 5 5 5 5 5 1 1 0 -0 -1 -1 1 1 1 1 1
-1 2 4 4 3 2 -3 1 0 -3 -3 -5 -5 -1 4 8 9 10 10 9 9 9 9 9 9 9 8 6 2 1 4 5 5 5 5 5 5 5 1 -2 -1 -1 -1 -3 0 1 1 1 1
0 1 3 4 1 1 0 3 0 -2 -4 -5 -2 -0 6 8 8 9 10 10 9 9 9 8 8 9 8 7 4 2 3 5 5 5 4 4 4 4 4 -2 -2 -2 -1 -1 -1 1 1 1 1
-1 2 -2 -1 4 4 1 0 -1 -3 -4 -4 -2 -0 4 7 8 9 9 10 9 9 8 8 7 8 8 8 6 4 2 5 5 5 5 5 5 5 2 -0 -2 -3 -2 -1 -2 1 2 1 2
-4 -3 2 2 7 5 1 1 1 -2 -4 -5 -4 -1 2 4 7 8 9 10 9 9 9 9 7 7 7 7 7 6 3 3 5 5 5 5 5 5 2 1 -0 0 -1 -3 -2 -0 2 2 2
0 1 0 0 1 4 3 0 -3 -3 -4 -5 -5 -2 1 3 5 7 8 10 9 8 8 8 8 7 7 7 6 6 6 3 4 6 5 3 4 3 2 2 2 2 0 2 3 2 2 2 3
-5 -1 1 5 4 3 2 0 -4 -3 -4 -5 -6 0 2 3 4 6 7 8 7 6 8 8 8 8 8 7 6 5 6 5 4 5 4 3 4 2 2 2 3 2 3 4 4 4 3 3 4
Wind_Speed
4 5 2 2 6 5 4 3 1 3 4 4 7 3 3 5 8 4 10 11 16 16 13 11 8 9 9 9 9 8 7 7 7 6 7 10 10 11 14 15 14 14 14 16 17 17 18 19 19
1 1 3 3 5 5 5 3 3 3 4 7 6 5 3 4 4 6 13 16 18 16 14 10 9 9 8 7 8 7 6 7 5 4 8 12 13 15 16 16 16 15 16 16 17 18 19 20 20
1 4 7 3 3 1 5 3 5 10 10 6 6 3 2 3 4 12 12 21 18 15 12 10 9 9 8 7 7 7 7 5 6 5 13 14 16 16 16 17 16 15 16 16 17 18 19 20 21
3 5 5 5 5 6 3 6 13 11 5 5 2 4 4 2 7 10 19 21 17 14 11 10 9 8 6 6 7 8 7 7 6 11 14 15 17 18 17 16 14 15 15 16 17 18 19 19 19
3 4 3 4 4 3 3 9 15 9 7 7 7 5 4 5 10 16 20 18 16 15 13 11 9 7 5 6 7 9 9 9 11 12 14 15 17 17 15 14 15 15 15 16 17 17 17 16 16
7 5 6 5 4 4 3 10 13 7 6 7 5 7 6 9 16 17 17 16 15 14 13 12 10 7 5 5 6 9 11 10 12 14 13 15 16 16 15 14 15 15 15 15 16 16 15 16 17
9 6 3 1 4 6 5 10 13 8 6 6 4 6 7 13 15 18 17 17 14 13 12 11 10 8 6 6 8 11 12 13 14 13 14 16 18 18 17 16 15 14 14 13 13 13 14 15 16
4 4 2 4 3 9 8 13 7 9 6 6 8 3 6 19 20 20 20 19 14 14 12 12 10 9 7 8 10 12 14 15 15 16 19 19 19 19 18 16 14 12 12 12 12 12 13 13 15
3 5 3 3 3 5 7 12 5 5 6 9 9 3 6 24 24 23 22 21 17 15 14 12 11 9 10 10 12 14 16 17 18 20 21 18 17 17 16 14 12 11 11 11 10 11 11 10 13
8 5 2 1 2 2 6 13 10 8 11 11 10 7 15 23 24 23 24 23 18 16 14 12 11 11 12 11 14 15 19 17 17 17 16 16 15 15 16 14 12 11 9 9 9 10 11 12 8
5 9 2 5 7 6 7 9 8 13 9 12 15 15 21 22 22 21 21 21 18 17 15 13 13 13 13 13 14 14 15 17 17 17 15 16 16 15 13 13 10 8 8 6 6 8 5 5 6
8 9 9 8 7 8 10 4 10 16 12 4 6 21 23 22 23 23 22 21 19 17 16 15 13 14 14 15 14 15 16 17 17 16 17 16 13 12 11 9 8 7 5 5 5 3 5 5 5
11 11 7 7 9 11 9 11 10 11 8 0 12 19 22 20 20 20 19 19 18 17 17 16 16 16 17 17 16 16 16 18 17 18 16 13 12 11 10 9 7 6 5 4 4 4 3 4 4
7 9 9 5 6 8 8 9 5 3 5 8 13 17 19 19 20 21 21 21 20 18 17 17 18 17 19 18 20 18 16 19 18 15 15 15 12 11 9 7 6 5 5 4 4 5 4 4 3
7 10 7 11 9 6 9 10 11 5 7 9 12 15 17 17 19 20 21 21 20 18 18 18 19 20 21 18 18 17 16 18 16 14 17 15 13 11 9 7 6 4 2 5 5 5 5 4 3
11 10 12 13 11 7 8 12 3 4 8 10 12 14 16 17 19 19 20 20 20 19 19 19 21 22 24 20 19 15 18 17 15 13 14 14 13 11 8 6 5 1 2 3 3 4 5 5 3
14 15 16 10 12 7 12 9 5 5 8 9 12 14 16 17 19 18 21 21 21 20 20 21 22 23 24 22 18 16 18 17 14 14 14 15 14 12 9 6 4 2 1 1 2 4 4 5 4
19 18 11 17 11 12 11 13 9 7 9 9 11 14 16 19 21 20 21 22 21 20 19 19 21 23 25 22 18 16 17 17 16 15 14 16 15 13 10 7 5 3 2 1 0 2 4 4 4
14 14 19 17 6 9 13 13 13 7 10 11 11 14 17 19 21 20 21 22 22 21 21 22 22 24 26 22 20 18 18 18 17 15 16 16 15 13 11 9 7 5 3 3 2 2 3 6 5
15 16 18 14 6 10 15 14 13 10 10 11 13 15 18 20 22 23 23 24 24 24 24 24 22 25 26 22 20 18 16 17 16 16 18 18 16 14 13 11 8 7 6 4 3 3 2 4 6
20 20 17 14 10 11 12 16 15 12 9 9 11 15 19 23 26 26 26 26 25 26 27 26 25 24 26 24 21 19 17 15 17 17 18 20 18 16 15 13 11 9 7 5 4 3 2 2 7
22 18 17 15 14 15 14 15 17 14 11 10 13 17 20 24 25 25 27 27 28 28 27 27 27 27 26 27 24 24 22 21 19 18 17 17 19 19 18 16 13 11 9 8 6 5 3 2 3
23 17 18 17 16 16 14 10 15 9 14 14 16 17 21 25 27 27 28 29 28 26 27 29 29 29 29 29 27 26 24 21 18 18 18 19 20 20 20 18 16 14 12 11 9 6 5 4 3
20 9 12 10 12 16 20 17 16 13 15 12 8 10 20 25 26 25 25 26 27 26 27 28 31 32 32 32 31 29 27 23 23 21 20 19 18 19 22 21 19 17 15 13 11 8 7 5 6
22 16 12 13 14 15 17 17 16 6 8 11 10 4 16 24 25 26 27 28 28 29 28 28 31 33 34 35 33 32 29 27 25 23 23 21 20 21 23 24 23 20 18 15 13 11 9 7 7
23 21 11 17 14 16 11 11 16 12 11 10 9 8 13 21 23 25 26 27 28 28 28 28 31 32 33 36 36 33 30 27 27 26 23 23 21 21 21 23 23 22 19 17 15 13 12 10 9
23 23 21 18 6 11 13 14 4 8 10 12 10 11 15 18 21 22 23 24 25 27 29 28 30 30 32 34 36 35 33 30 27 26 26 23 22 21 23 22 24 22 21 19 16 16 14 14 11
21 17 15 13 19 18 19 17 10 15 15 15 10 11 15 15 18 20 20 22 22 23 24 27 28 29 30 31 34 34 35 33 28 27 28 27 24 24 25 24 24 22 21 17 18 20 17 15 12
12 17 18 19 16 16 15 15 14 13 13 15 13 8 13 14 18 18 18 18 19 18 21 24 28 27 27 29 31 33 33 34 32 29 30 30 28 28 28 26 25 24 24 23 18 20 18 17 15
28 25 22 12 19 16 15 14 8 14 14 12 12 11 13 15 15 14 14 15 16 17 19 23 25 28 28 28 30 32 33 32 33 33 32 31 32 32 31 29 29 28 27 25 21 22 21 19 17
Wind_Direction
330 323 232 237 238 251 112 117 326 139 144 112 151 190 323 4 350 25 144 149 148 145 158 148 140 131 129 122 119 115 118 126 125 127 137 128 131 114 108 111 108 102 94 85 75 66 63 65 64
70 351 198 235 257 249 98 140 181 67 79 150 154 191 235 62 61 123 140 148 147 149 138 144 141 136 135 128 124 127 127 124 116 118 128 117 115 114 113 117 117 103 94 84 73 68 69 67 65
277 207 241 239 249 23 110 165 113 127 132 158 157 225 1 69 111 136 155 148 152 141 144 159 146 145 144 135 133 136 135 132 121 122 119 120 116 113 113 120 115 97 94 82 73 72 69 65 61
261 211 205 256 185 94 76 146 141 146 157 183 199 152 108 146 152 150 152 149 147 141 149 149 149 149 144 132 140 139 150 148 148 128 124 124 119 118 117 120 106 102 93 83 78 72 65 59 53
273 244 208 209 139 100 155 159 165 167 154 176 178 133 117 110 141 144 151 148 147 148 155 153 153 152 145 132 143 149 154 142 139 143 129 123 120 121 124 121 109 103 92 85 79 70 60 51 46
225 257 222 198 199 149 162 175 179 191 163 155 194 150 123 144 147 149 150 154 154 151 146 153 155 153 141 135 143 147 146 146 145 137 136 127 124 124 126 117 111 102 93 83 71 60 51 46 47
282 268 40 0 200 190 151 178 188 190 176 187 160 162 131 156 164 151 157 153 152 151 148 146 149 147 143 139 144 150 149 146 146 138 133 128 123 121 123 116 110 101 91 78 66 55 50 47 46
279 275 183 109 143 126 153 182 205 199 174 148 179 183 159 174 163 154 173 158 157 154 152 145 138 138 141 142 141 149 149 146 141 131 127 123 117 116 116 117 112 101 87 74 62 55 50 46 44
253 240 151 98 205 97 173 207 190 211 185 193 187 149 145 165 164 168 169 163 163 159 157 152 147 145 142 138 141 143 144 141 134 131 129 111 116 117 117 127 113 100 88 73 60 53 48 46 48
253 256 113 279 309 300 204 221 172 204 201 199 180 154 148 159 166 168 171 166 164 163 160 158 153 152 141 142 133 136 132 134 134 136 133 129 122 126 125 119 112 99 82 69 57 50 48 62 50
197 260 38 275 271 261 231 220 209 225 222 226 207 175 164 167 171 175 173 174 168 168 165 166 165 159 149 153 142 144 147 146 143 139 137 139 134 128 125 120 115 99 77 73 67 54 70 79 83
240 242 276 291 277 253 236 246 219 240 258 53 212 175 171 176 178 177 176 171 173 173 171 168 166 166 158 156 150 154 156 154 149 151 149 148 141 139 134 135 132 118 116 96 86 58 36 46 58
231 257 277 283 239 246 238 234 252 255 253 139 151 164 175 177 179 175 175 173 174 175 174 173 174 172 168 157 163 158 165 159 163 159 158 155 151 149 142 142 136 125 104 87 79 72 84 77 76
216 254 260 246 219 199 226 232 246 246 163 142 154 168 176 177 176 174 175 179 179 176 177 178 176 175 174 169 169 167 162 172 162 165 169 169 163 159 149 136 131 120 106 73 70 86 83 92 88
226 236 218 218 209 205 225 236 233 224 155 163 167 173 174 175 177 179 179 182 180 180 177 182 180 179 176 174 170 168 170 166 169 171 176 177 168 167 154 151 142 134 61 48 48 45 39 49 62
214 228 222 188 194 193 214 263 165 149 192 185 182 180 178 177 179 179 181 180 180 181 184 184 183 182 178 178 176 173 179 174 179 182 187 185 183 180 171 162 161 172 58 73 64 36 40 51 85
207 224 219 166 205 188 218 270 143 163 190 193 192 184 183 180 181 181 183 182 183 184 184 187 187 185 181 183 179 178 185 183 188 189 192 197 194 191 179 179 205 220 323 32 62 31 33 44 84
216 222 220 234 175 223 206 251 263 198 204 208 194 184 185 186 185 182 182 183 182 186 189 191 187 188 186 186 184 186 192 196 197 195 191 196 197 199 202 200 213 228 262 248 32 25 19 40 69
256 213 228 216 183 236 235 255 271 224 214 214 199 187 186 188 185 185 184 185 185 190 187 193 191 192 190 189 189 193 195 196 199 200 199 203 206 212 212 205 219 224 233 240 313 344 1 8 15
224 224 232 243 173 240 256 255 249 232 245 221 204 194 188 184 185 186 187 189 190 192 193 197 197 197 194 192 194 196 198 204 200 198 205 208 213 218 214 214 215 217 239 242 287 304 337 347 354
222 228 230 235 194 236 262 257 242 219 221 207 207 200 194 191 189 190 189 191 193 197 197 199 199 201 197 192 193 194 195 196 199 202 205 210 213 214 214 221 220 226 228 234 258 284 313 280 340
221 220 240 241 241 250 205 254 230 214 214 219 207 200 199 195 196 195 194 194 197 200 200 201 200 203 205 199 197 200 200 203 207 207 204 207 213 215 216 223 227 230 224 230 239 253 260 296 292
233 215 228 236 247 252 222 246 258 179 229 236 232 203 198 198 195 195 197 200 200 198 201 202 203 203 207 209 202 203 204 210 207 206 206 208 216 218 220 226 226 229 229 233 237 237 242 282 296
227 206 218 231 244 239 236 238 243 209 226 255 248 255 194 195 194 196 197 198 200 200 203 205 205 206 207 213 212 209 208 205 206 202 206 207 211 215 220 224 225 228 232 236 241 240 240 255 298
217 210 223 226 224 240 233 232 239 229 228 258 265 202 186 187 188 190 192 196 198 201 204 208 207 207 208 213 216 216 212 208 209 205 208 205 208 212 220 223 226 229 232 235 241 248 254 255 281
206 205 211 222 227 232 186 231 235 229 239 242 252 214 176 181 184 189 194 196 198 201 208 214 209 207 208 212 216 218 217 212 213 212 211 211 212 216 219 226 227 230 232 234 240 245 254 258 271
201 214 218 246 293 267 206 220 250 204 222 219 231 196 179 179 183 187 192 196 198 201 212 218 212 208 210 212 214 217 220 213 211 210 211 214 213 213 221 227 226 226 230 233 240 248 251 256 269
213 211 207 227 229 234 235 228 233 199 217 208 212 204 185 179 181 185 190 195 197 202 209 217 218 213 211 213 214 215 219 220 213 210 215 213 213 212 222 226 223 223 226 228 238 244 246 251 261
192 213 212 210 219 228 236 225 217 226 213 214 216 209 188 183 176 178 184 192 196 200 205 214 216 212 210 215 215 215 217 220 217 214 220 220 217 220 227 227 224 223 222 226 232 244 245 248 255
215 213 203 209 206 232 244 239 152 222 219 211 217 182 164 162 164 172 182 190 201 208 208 209 211 214 215 217 218 218 219 219 220 219 223 223 220 225 229 227 227 225 225 231 231 244 246 251 253
Height
1540 1539 1539 1540 1535 1523 1532 1537 1535 1536 1537 1543 1544 1546 1545 1547 1545 1549 1559 1560 1564 1565 1566 1568 1570 1571 1573 1574 1575 1576 1577 1577 1578 1578 1578 1579 1579 1580 1580 1581 1581 1581 1580 1581 1581 1580 1580 1579 1579
1540 1539 1541 1537 1530 1528 1532 1533 1535 1536 1541 1545 1547 1548 1547 1545 1553 1554 1557 1560 1563 1565 1568 1569 1570 1571 1573 1574 1576 1577 1578 1578 1579 1579 1579 1580 1580 1581 1582 1582 1583 1583 1584 1584 1584 1583 1583 1583 1582
1539 1539 1537 1529 1527 1527 1529 1531 1534 1541 1544 1544 1546 1548 1549 1551 1555 1556 1558 1560 1563 1566 1571 1569 1571 1572 1573 1575 1577 1578 1579 1579 1580 1580 1580 1581 1582 1584 1584 1585 1585 1586 1586 1587 1587 1586 1586 1585 1584
1540 1539 1536 1529 1527 1528 1529 1532 1538 1542 1545 1545 1545 1547 1552 1553 1555 1557 1556 1560 1563 1569 1572 1570 1572 1573 1574 1575 1576 1577 1579 1580 1581 1582 1581 1582 1584 1585 1587 1587 1588 1589 1589 1589 1589 1589 1589 1588 1587
1539 1534 1528 1529 1525 1528 1532 1534 1538 1540 1542 1544 1546 1545 1551 1554 1555 1557 1558 1563 1566 1569 1570 1570 1572 1573 1574 1576 1577 1578 1579 1580 1581 1582 1583 1585 1587 1588 1588 1589 1590 1591 1592 1592 1591 1590 1590 1591 1590
1534 1531 1523 1529 1524 1527 1531 1533 1536 1537 1540 1544 1545 1546 1552 1554 1556 1558 1561 1565 1568 1570 1571 1570 1572 1573 1575 1576 1577 1578 1580 1580 1581 1583 1585 1586 1588 1590 1591 1592 1593 1593 1593 1593 1593 1592 1592 1591 1591
1530 1523 1524 1528 1528 1528 1528 1533 1534 1535 1537 1541 1543 1543 1552 1554 1555 1558 1563 1564 1568 1570 1572 1572 1573 1573 1575 1576 1577 1578 1580 1581 1582 1584 1586 1588 1590 1592 1593 1594 1595 1596 1596 1595 1595 1594 1594 1592 1592
1533 1527 1526 1526 1525 1523 1528 1533 1533 1534 1535 1541 1543 1540 1546 1551 1552 1559 1559 1562 1568 1570 1572 1573 1575 1576 1576 1576 1578 1579 1581 1583 1584 1586 1589 1592 1593 1595 1596 1597 1598 1598 1598 1598 1597 1596 1596 1595 1594
1534 1524 1523 1526 1525 1524 1529 1530 1534 1535 1536 1539 1541 1543 1545 1546 1549 1554 1557 1561 1566 1568 1571 1573 1576 1577 1577 1578 1579 1581 1583 1585 1587 1590 1592 1595 1598 1598 1600 1599 1599 1600 1600 1600 1599 1598 1597 1596 1595
1529 1522 1522 1525 1524 1523 1527 1528 1530 1534 1534 1537 1540 1542 1544 1546 1549 1551 1554 1559 1564 1567 1570 1573 1575 1577 1579 1582 1582 1584 1586 1590 1591 1593 1595 1598 1600 1600 1600 1600 1601 1601 1601 1601 1601 1599 1598 1599 1600
1527 1521 1522 1523 1525 1526 1525 1526 1529 1529 1525 1528 1534 1541 1543 1545 1549 1553 1556 1560 1565 1567 1570 1573 1574 1576 1579 1581 1584 1587 1588 1589 1591 1594 1597 1597 1598 1600 1601 1601 1602 1602 1603 1603 1602 1601 1603 1601 1601
1526 1523 1524 1524 1525 1525 1523 1523 1526 1526 1523 1527 1530 1535 1540 1542 1546 1551 1556 1559 1565 1567 1568 1572 1574 1575 1579 1581 1585 1587 1589 1590 1592 1594 1596 1598 1600 1602 1603 1605 1605 1605 1606 1605 1605 1604 1601 1600 1599
1526 1522 1524 1524 1525 1525 1524 1524 1523 1521 1523 1527 1530 1534 1538 1541 1546 1551 1555 1560 1564 1566 1567 1569 1572 1574 1576 1580 1583 1586 1588 1590 1592 1594 1596 1600 1601 1602 1604 1604 1606 1606 1606 1606 1605 1604 1603 1601 1600
1522 1523 1522 1523 1523 1524 1524 1521 1525 1520 1523 1528 1530 1533 1537 1540 1545 1550 1554 1558 1561 1564 1565 1567 1570 1573 1576 1579 1580 1583 1588 1589 1593 1595 1597 1598 1601 1602 1604 1605 1606 1606 1606 1605 1604 1604 1604 1603 1601
1524 1522 1520 1520 1520 1519 1523 1521 1519 1518 1523 1527 1530 1533 1537 1540 1544 1548 1552 1556 1559 1562 1563 1565 1568 1571 1574 1579 1581 1583 1587 1590 1594 1596 1596 1598 1600 1602 1603 1605 1605 1605 1604 1604 1603 1603 1602 1601 1600
1521 1519 1518 1510 1518 1519 1521 1512 1505 1517 1521 1524 1528 1532 1536 1539 1543 1547 1550 1554 1558 1560 1560 1562 1566 1569 1573 1577 1580 1584 1586 1590 1593 1595 1595 1597 1599 1601 1602 1603 1604 1603 1603 1603 1603 1603 1602 1601 1601
1514 1516 1513 1511 1513 1512 1516 1506 1506 1515 1518 1519 1525 1530 1535 1538 1542 1545 1547 1551 1554 1557 1558 1561 1564 1568 1572 1576 1580 1583 1586 1589 1591 1593 1594 1596 1598 1599 1601 1602 1602 1602 1602 1602 1603 1602 1602 1600 1600
1509 1513 1505 1509 1507 1511 1507 1507 1502 1508 1514 1516 1520 1526 1531 1535 1538 1541 1545 1549 1553 1555 1558 1560 1563 1567 1571 1575 1579 1582 1585 1588 1589 1591 1593 1594 1596 1598 1600 1601 1600 1601 1601 1601 1602 1602 1601 1600 1599
1497 1503 1505 1501 1500 1507 1505 1503 1499 1501 1509 1512 1515 1521 1527 1530 1535 1539 1542 1546 1550 1552 1555 1558 1560 1564 1568 1572 1576 1580 1582 1584 1587 1590 1591 1593 1595 1596 1598 1599 1600 1600 1600 1600 1600 1600 1600 1599 1597
1503 1505 1504 1498 1501 1509 1500 1502 1494 1498 1501 1504 1509 1516 1521 1526 1531 1534 1538 1542 1546 1549 1552 1554 1558 1560 1564 1570 1574 1578 1581 1582 1585 1587 1588 1590 1592 1594 1596 1597 1598 1599 1599 1599 1600 1599 1599 1598 1597
1500 1502 1501 1502 1499 1504 1502 1501 1492 1493 1498 1503 1506 1510 1515 1519 1523 1528 1533 1537 1542 1545 1547 1551 1554 1557 1560 1566 1571 1573 1577 1580 1582 1583 1585 1587 1589 1591 1594 1595 1596 1598 1598 1599 1599 1598 1599 1600 1596
1499 1496 1497 1499 1503 1507 1493 1506 1480 1484 1492 1494 1496 1504 1508 1512 1518 1523 1527 1532 1535 1540 1543 1547 1550 1553 1556 1560 1564 1567 1571 1574 1578 1580 1583 1585 1586 1588 1591 1592 1594 1595 1597 1597 1597 1597 1597 1598 1598
1492 1489 1497 1497 1498 1498 1494 1504 1482 1481 1488 1484 1486 1488 1499 1505 1510 1515 1520 1525 1530 1535 1537 1541 1546 1548 1551 1553 1559 1562 1567 1571 1574 1577 1579 1581 1583 1585 1587 1589 1591 1593 1594 1595 1595 1595 1595 1595 1595
1489 1493 1496 1498 1497 1504 1494 1490 1482 1473 1481 1478 1481 1483 1490 1498 1503 1510 1515 1521 1525 1529 1531 1535 1539 1542 1545 1548 1552 1556 1560 1565 1569 1570 1574 1576 1579 1581 1583 1585 1587 1589 1590 1591 1593 1593 1593 1593 1593
1484 1494 1505 1508 1503 1502 1479 1486 1478 1466 1473 1476 1477 1480 1485 1491 1497 1503 1508 1513 1518 1521 1524 1528 1532 1536 1539 1542 1546 1549 1554 1559 1563 1565 1568 1571 1574 1576 1577 1580 1582 1584 1586 1587 1588 1589 1590 1590 1590
1480 1484 1492 1507 1495 1488 1478 1490 1473 1468 1470 1474 1477 1480 1483 1487 1492 1497 1502 1507 1511 1515 1518 1521 1525 1530 1534 1536 1541 1545 1549 1554 1556 1561 1564 1567 1569 1571 1574 1575 1578 1580 1582 1584 1585 1586 1586 1587 1586
1472 1473 1470 1481 1491 1482 1467 1471 1467 1467 1468 1469 1472 1475 1478 1483 1487 1491 1497 1501 1505 1509 1511 1515 1519 1524 1528 1530 1535 1539 1543 1547 1551 1556 1558 1562 1564 1567 1568 1571 1573 1575 1577 1579 1581 1582 1582 1582 1583
1457 1467 1483 1478 1500 1496 1470 1464 1466 1461 1463 1462 1465 1469 1473 1478 1483 1488 1492 1495 1499 1503 1507 1510 1514 1518 1522 1524 1528 1533 1536 1541 1546 1550 1552 1555 1559 1561 1562 1565 1568 1570 1572 1574 1575 1576 1577 1577 1578
1462 1459 1460 1464 1468 1477 1476 1459 1447 1451 1454 1456 1460 1464 1468 1473 1478 1483 1487 1491 1493 1497 1501 1504 1508 1513 1517 1519 1522 1527 1530 1534 1539 1543 1545 1549 1552 1554 1556 1560 1563 1565 1566 1568 1569 1571 1572 1573 1574
1440 1448 1453 1461 1466 1463 1457 1454 1441 1447 1450 1454 1457 1463 1467 1471 1475 1479 1483 1486 1488 1491 1495 1498 1502 1506 1510 1513 1516 1520 1524 1527 1531 1535 1538 1542 1545 1548 1551 1554 1557 1559 1561 1562 1563 1564 1567 1568 1569